weather.gov     
National Weather Service

Regional Weather Roundup
NWS Homepage
This page is being discontinued on March 12, 2014.
The same data is available at this site. Please update your bookmarks.
Thank you, and we apologize for the inconvenience.
Please send an email to SR-SRH.Webmaster@noaa.gov with any concerns.


Current Version
Previous Version:    01  02  03  04  05  06  07  08  09  10  11  12  13  14  15  16  17  18  19  20  21  22  23  24  25  26  27  28  29  30  
   31  32  33  34  35  36  37  38  39  40  41  42  43  44  45  46  47  48  49  50  51  52  53  54  55  56  57  58  59  60  
[Printable]
013
ASUS43 KJKL 222319
RWRJKL

EAST KENTUCKY HOURLY WEATHER ROUNDUP
NATIONAL WEATHER SERVICE JACKSON KY
700 PM EDT WED OCT 22 2014

NOTE: "FAIR" INDICATES FEW OR NO CLOUDS BELOW 12,000 FEET WITH
NO SIGNIFICANT WEATHER AND/OR OBSTRUCTIONS TO VISIBILITY.

* THESE REPORTS ARE NOT UNDER NWS QUALITY CONTROL AND MAY NOT
  REPORT WEATHER SUCH AS PRECIPITATION AND FOG.

KYZ079-080-083-085-087-088-110-112-115-119-120-230000
...EASTERN KENTUCKY...

CITY           SKY/WX    TMP DP  RH WIND       PRES   REMARKS
JACKSON        CLOUDY    49  41  74 CALM      30.23S
LONDON         CLOUDY    50  40  68 N3        30.25R
SOMERSET*      CLOUDY    46  37  71 CALM      30.27S
MONTICELLO*    MOCLDY    50  41  71 NE7       30.27R
WILLIAMSBURG*  CLOUDY    46  41  81 CALM      30.25
MIDDLESBORO*   CLOUDY    49  41  73 NW6       30.24S
HARLAN APT*    CLOUDY    46  39  76 N3        30.23S
BLACK MTN*       N/A     36  36 100 N14         N/A  WCI  27
PIKEVILLE APT* CLOUDY    46  43  87 CALM      30.22S
BIG SANDY*     CLOUDY    49  43  80 CALM      30.23R
MOREHEAD APT*  CLOUDY    50  41  71 NW3       30.27R
ASHLAND*       CLOUDY    52  39  62 N3        30.23R
$$

KYZ035-036-041-042-044-050-067-078-099-230000
...CENTRAL KENTUCKY...

CITY           SKY/WX    TMP DP  RH WIND       PRES   REMARKS
MT STERLING*   CLOUDY    50  43  76 NE6       30.26R
FLEMING/MASON* CLOUDY    50  41  71 CALM      30.26S
DANVILLE*      CLOUDY    50  41  71 CALM      30.26S
RICHMOND*      CLOUDY    48  41  76 CALM      30.24S
LEXINGTON      CLOUDY    54  42  64 NE5       30.24F
FRANKFORT      CLEAR     53  39  59 N3        30.24S
$$

KYZ091>093-OHZ055-061-077-WVZ005-015-034-035-042-230000
...SOUTHERN OHIO/WEST VIRGINIA...

CITY           SKY/WX    TMP DP  RH WIND       PRES   REMARKS
COVINGTON      MOCLDY    52  38  58 E9        30.25F
COLUMBUS       CLOUDY    50  41  71 N8        30.25R
DAYTON         CLOUDY    49  41  74 NE10      30.28S
WILMINGTON     CLOUDY    48  40  73 NE10      30.26S
HUNTINGTON     CLOUDY    50  43  77 N5        30.23R
CHARLESTON     CLOUDY    50  44  80 NW6       30.20R
PINEVILLE*     DRIZZLE   47  47 100 MISG      30.23S
BECKLEY        CLOUDY    43  40  89 NW8       30.16S
BLUEFIELD      CLOUDY    44  39  82 N6        30.16S
$$

VAZ002-007-008-TNZ017-027-036-066-071-230000
...SOUTHWEST VIRGINIA/EAST TENNESSEE...

CITY           SKY/WX    TMP DP  RH WIND       PRES   REMARKS
WISE*          CLOUDY    43  43 100 NW5       30.21S FOG
JONESVILLE*    CLOUDY    48  39  71 CALM      30.24F
ABINGDON*      CLOUDY    46  42  84 N5        30.19S
BRISTOL        CLOUDY    48  41  76 N6        30.21R
KNOXVILLE      PTCLDY    54  40  59 N17       30.17R
OAK RIDGE      CLEAR     53  41  63 MISG      30.21R
CROSSVILLE     CLEAR     54  39  57 NE7       30.18S
NASHVILLE      CLEAR     58  41  53 NE9       30.20S
$$

...KEY TO REMARKS...
VSB - VISIBILITY IN MILES
WCI - WIND CHILL INDEX
HX  - HEAT INDEX

$$




U.S. Dept. of Commerce
NOAA National Weather Service
1325 East West Highway
Silver Spring, MD 20910
E-mail: w-nws.webmaster@noaa.gov
Page last modified: May 16, 2007
NATIONAL WEATHER SERVICE: for Safety, for Work, for Fun - FOR LIFE